This is the latest recevied weather packets stored in our database for station/object N9DMT-13. If no packets are shown the sender has not sent any weather packets the latest 10 day(s).
| Time | Temp. | Humidity | Pressure | Rain* | Wind** | Luminosity | Snow |
|---|---|---|---|---|---|---|---|
| 1777731056 | 10° C | 53% | 987.2 hPa | 0 mm | - | - | - |
| 1777730755 | 10° C | 50% | 987.3 hPa | 0 mm | - | - | - |
| 1777730454 | 10.56° C | 51% | 987.4 hPa | 0 mm | - | - | - |
| 1777729853 | 8.89° C | 57% | 987.4 hPa | 0 mm | - | - | - |
| 1777729552 | 8.89° C | 57% | 987.6 hPa | 0 mm | - | - | - |
| 1777729251 | 8.33° C | 59% | 987.6 hPa | 0 mm | - | - | - |
| 1777728950 | 7.78° C | 62% | 987.4 hPa | 0 mm | - | - | - |
| 1777728650 | 7.22° C | 61% | 987.6 hPa | 0 mm | - | - | - |
| 1777728349 | 6.67° C | 66% | 987.6 hPa | 0 mm | - | - | - |
| 1777728048 | 6.67° C | 70% | 987.6 hPa | 0 mm | - | - | - |
| 1777727747 | 5.56° C | 71% | 987.7 hPa | 0 mm | - | - | - |
| 1777727446 | 5° C | 71% | 987.7 hPa | 0 mm | - | - | - |
| 1777727146 | 4.44° C | 72% | 987.7 hPa | 0 mm | - | - | - |
| 1777726845 | 3.33° C | 75% | 987.9 hPa | 0 mm | - | - | - |
| 1777726544 | 2.78° C | 78% | 987.8 hPa | 0 mm | - | - | - |
| 1777726243 | 1.11° C | 83% | 987.8 hPa | 0 mm | - | - | - |
| 1777725942 | 1.11° C | 84% | 987.8 hPa | 0 mm | - | - | - |
| 1777725642 | 1.11° C | 86% | 987.9 hPa | 0 mm | - | - | - |
| 1777725341 | 0.56° C | 86% | 987.7 hPa | 0 mm | - | - | - |
| 1777725040 | 0.56° C | 86% | 987.7 hPa | 0 mm | - | - | - |
| 1777724740 | 0° C | 87% | 988 hPa | 0 mm | - | - | - |
| 1777724439 | 0° C | 87% | 987.7 hPa | 0 mm | - | - | - |
| 1777724138 | 0° C | 88% | 987.7 hPa | 0 mm | - | - | - |
| 1777723838 | 0° C | 89% | 987.8 hPa | 0 mm | - | - | - |
| 1777723537 | -0.56° C | 90% | 987.9 hPa | 0 mm | - | - | - |
* Rain latest hour (hover to see other rain measurements)
** Current wind speed in m/s (hover to see current wind gust speed)